カタログに戻る

STARLINK-31285

運用中通信VLEO
NORAD 59244·PAYLOAD·🇺🇸 United States

打ち上げ Mar 16, 2024 から Cape Canaveral Space Force Station

Loading…

次のパス (今後24時間)

TLE

最新Source: CelesTrak SupGP

元期: Sep 15, 2026, 03:12 UTC

1 59244C 24049P   26258.13381944  .00041051  00000+0  14870-2 0  2589
2 59244  42.9998 153.3710 0001276 273.7419  42.1461 15.27553934    19

AllMySatでSTARLINK-31285をリアルタイム追跡

Download on the App Store